| time (UTC) | temp F | wind direction | speed MPH | gust MPH | rain 1hr in | rain 24hr in | rain mn in | humidity % | barometer mb |
| 20260510094538 | 47 | 25 | 0.0 | 0.0 | 0.00 | 0.00 | 0.00 | 98 | 1010.6 |
| 20260510094034 | 47 | 30 | 0.0 | 0.0 | 0.00 | 0.00 | 0.00 | 98 | 1010.6 |
| 20260510093530 | 47 | 31 | 0.0 | 0.0 | 0.00 | 0.00 | 0.00 | 98 | 1010.7 |
| 20260510093027 | 48 | 31 | 0.0 | 0.0 | 0.00 | 0.00 | 0.00 | 98 | 1010.6 |
| 20260510092524 | 48 | 31 | 0.0 | 0.0 | 0.00 | 0.00 | 0.00 | 98 | 1010.6 |
| 20260510092024 | 48 | 31 | 0.0 | 0.0 | 0.00 | 0.00 | 0.00 | 98 | 1010.7 |
| 20260510091521 | 48 | 28 | 0.0 | 0.0 | 0.00 | 0.00 | 0.00 | 98 | 1010.7 |
| 20260510091017 | 48 | 28 | 0.0 | 0.0 | 0.00 | 0.00 | 0.00 | 98 | 1010.6 |
| 20260510090514 | 48 | 30 | 0.0 | 0.0 | 0.00 | 0.00 | 0.00 | 98 | 1010.5 |
| 20260510090010 | 48 | 28 | 0.0 | 0.0 | 0.00 | 0.00 | 0.00 | 98 | 1010.7 |
| 20260510085504 | 48 | 30 | 0.0 | 0.0 | 0.00 | 0.00 | 0.00 | 98 | 1010.5 |
| 20260510085001 | 48 | 30 | 0.0 | 0.0 | 0.00 | 0.00 | 0.00 | 97 | 1010.4 |
| 20260510084457 | 48 | 26 | 0.0 | 0.0 | 0.00 | 0.00 | 0.00 | 98 | 1010.6 |
| 20260510083954 | 48 | 25 | 0.0 | 0.0 | 0.00 | 0.00 | 0.00 | 98 | 1010.7 |
| 20260510083451 | 48 | 35 | 0.0 | 0.0 | 0.00 | 0.00 | 0.00 | 97 | 1010.5 |
| 20260510082946 | 48 | 31 | 0.0 | 1.0 | 0.00 | 0.00 | 0.00 | 97 | 1010.6 |
| 20260510082444 | 49 | 10 | 2.0 | 2.0 | 0.00 | 0.00 | 0.00 | 97 | 1010.6 |
| 20260510081943 | 49 | 28 | 0.0 | 0.0 | 0.00 | 0.00 | 0.00 | 97 | 1010.3 |
| 20260510081439 | 49 | 28 | 0.0 | 0.0 | 0.00 | 0.00 | 0.00 | 97 | 1010.3 |
| 20260510080936 | 49 | 27 | 0.0 | 0.0 | 0.00 | 0.00 | 0.00 | 97 | 1010.4 |
| 20260510080434 | 49 | 28 | 0.0 | 0.0 | 0.00 | 0.00 | 0.00 | 97 | 1010.2 |
| 20260510075931 | 49 | 28 | 0.0 | 0.0 | 0.00 | 0.00 | 0.00 | 97 | 1009.9 |
| 20260510075429 | 49 | 28 | 0.0 | 0.0 | 0.00 | 0.00 | 0.00 | 97 | 1010.0 |
| 20260510074926 | 49 | 28 | 0.0 | 0.0 | 0.00 | 0.00 | 0.00 | 97 | 1009.9 |
| 20260510074423 | 49 | 25 | 0.0 | 0.0 | 0.00 | 0.00 | 0.00 | 97 | 1009.8 |
| 20260510073919 | 49 | 27 | 0.0 | 0.0 | 0.00 | 0.00 | 0.00 | 97 | 1009.7 |
| 20260510073415 | 50 | 27 | 0.0 | 0.0 | 0.00 | 0.00 | 0.00 | 97 | 1009.6 |
| 20260510072911 | 50 | 27 | 0.0 | 0.0 | 0.00 | 0.00 | 0.00 | 97 | 1009.6 |
| 20260510072408 | 50 | 29 | 0.0 | 0.0 | 0.00 | 0.00 | 0.00 | 97 | 1009.4 |
| 20260510071903 | 50 | 29 | 0.0 | 0.0 | 0.00 | 0.00 | 0.00 | 97 | 1009.6 |
| 20260510071400 | 50 | 27 | 0.0 | 0.0 | 0.00 | 0.00 | 0.00 | 97 | 1009.5 |
| 20260510070859 | 50 | 29 | 0.0 | 0.0 | 0.00 | 0.00 | 0.00 | 97 | 1009.4 |
| 20260510070356 | 50 | 32 | 0.0 | 0.0 | 0.00 | 0.00 | 0.00 | 97 | 1009.5 |
| 20260510065856 | 50 | 28 | 0.0 | 0.0 | 0.00 | 0.00 | 0.00 | 97 | 1009.6 |
| 20260510065353 | 50 | 27 | 0.0 | 0.0 | 0.00 | 0.00 | 0.00 | 97 | 1009.5 |
| 20260510064849 | 50 | 27 | 0.0 | 0.0 | 0.00 | 0.00 | 0.00 | 97 | 1009.3 |
| 20260510064347 | 50 | 27 | 0.0 | 0.0 | 0.00 | 0.00 | 0.00 | 97 | 1009.3 |
| 20260510063843 | 50 | 28 | 0.0 | 0.0 | 0.00 | 0.00 | 0.00 | 97 | 1009.3 |
| 20260510063340 | 51 | 28 | 0.0 | 0.0 | 0.00 | 0.00 | 0.00 | 97 | 1009.1 |
| 20260510062837 | 51 | 28 | 0.0 | 0.0 | 0.00 | 0.00 | 0.00 | 97 | 1009.1 |
| 20260510062332 | 51 | 27 | 0.0 | 0.0 | 0.00 | 0.00 | 0.00 | 97 | 1009.2 |
| 20260510061827 | 51 | 27 | 0.0 | 0.0 | 0.00 | 0.00 | 0.00 | 97 | 1009.2 |
| 20260510061325 | 51 | 27 | 0.0 | 0.0 | 0.00 | 0.00 | 0.00 | 97 | 1009.1 |
| 20260510060820 | 51 | 28 | 0.0 | 0.0 | 0.00 | 0.00 | 0.00 | 97 | 1009.2 |
| 20260510060318 | 51 | 27 | 0.0 | 0.0 | 0.00 | 0.00 | 0.00 | 97 | 1009.2 |
| 20260510055815 | 51 | 27 | 0.0 | 0.0 | 0.00 | 0.00 | 0.00 | 97 | 1009.4 |
| 20260510055313 | 51 | 30 | 0.0 | 0.0 | 0.00 | 0.00 | 0.00 | 97 | 1009.4 |
| 20260510054813 | 52 | 31 | 0.0 | 0.0 | 0.00 | 0.00 | 0.00 | 97 | 1009.3 |
| 20260510054309 | 52 | 31 | 0.0 | 0.0 | 0.00 | 0.00 | 0.00 | 97 | 1009.4 |
| 20260510053804 | 52 | 30 | 0.0 | 0.0 | 0.00 | 0.00 | 0.00 | 97 | 1009.5 |
| 20260510053259 | 52 | 30 | 0.0 | 0.0 | 0.00 | 0.00 | 0.00 | 97 | 1009.5 |
| 20260510052756 | 52 | 31 | 0.0 | 0.0 | 0.00 | 0.00 | 0.00 | 96 | 1009.5 |
| 20260510052251 | 52 | 31 | 0.0 | 0.0 | 0.00 | 0.00 | 0.00 | 96 | 1009.6 |
| 20260510051748 | 52 | 30 | 0.0 | 0.0 | 0.00 | 0.00 | 0.00 | 96 | 1009.5 |
| 20260510051244 | 52 | 30 | 0.0 | 0.0 | 0.00 | 0.00 | 0.00 | 96 | 1009.3 |
| 20260510050741 | 52 | 29 | 0.0 | 0.0 | 0.00 | 0.00 | 0.00 | 96 | 1009.4 |
| 20260510050239 | 53 | 30 | 0.0 | 0.0 | 0.00 | 0.00 | 0.00 | 96 | 1009.3 |
| 20260510045735 | 53 | 30 | 0.0 | 0.0 | 0.00 | 0.00 | 0.00 | 96 | 1009.6 |
| 20260510045231 | 53 | 30 | 0.0 | 0.0 | 0.00 | 0.00 | 0.00 | 96 | 1009.7 |
| 20260510044728 | 53 | 30 | 0.0 | 0.0 | 0.00 | 0.00 | 0.00 | 96 | 1009.5 |
| 20260510044227 | 53 | 30 | 0.0 | 0.0 | 0.00 | 0.00 | 0.00 | 96 | 1009.4 |
| 20260510043721 | 53 | 30 | 0.0 | 0.0 | 0.00 | 0.00 | 0.00 | 96 | 1009.4 |
| 20260510043219 | 53 | 30 | 0.0 | 0.0 | 0.00 | 0.00 | 0.00 | 96 | 1009.5 |
| 20260510042716 | 53 | 30 | 0.0 | 0.0 | 0.00 | 0.00 | 0.00 | 96 | 1009.5 |
| 20260510042212 | 53 | 30 | 0.0 | 0.0 | 0.00 | 0.00 | 0.00 | 96 | 1009.4 |
| 20260510041709 | 53 | 27 | 0.0 | 0.0 | 0.00 | 0.00 | 0.00 | 96 | 1009.6 |
| 20260510041206 | 53 | 27 | 0.0 | 0.0 | 0.00 | 0.00 | 0.00 | 96 | 1009.4 |
| 20260510040703 | 54 | 27 | 0.0 | 0.0 | 0.00 | 0.00 | 0.00 | 95 | 1009.4 |
| 20260510040200 | 54 | 28 | 0.0 | 0.0 | 0.00 | 0.00 | 0.00 | 95 | 1009.5 |
| 20260510035655 | 54 | 28 | 0.0 | 0.0 | 0.00 | 0.00 | 0.00 | 95 | 1009.6 |
| 20260510035151 | 54 | 28 | 0.0 | 0.0 | 0.00 | 0.00 | 0.00 | 95 | 1009.4 |
| 20260510034647 | 54 | 27 | 0.0 | 0.0 | 0.00 | 0.00 | 0.00 | 95 | 1009.3 |
| 20260510034144 | 54 | 27 | 0.0 | 0.0 | 0.00 | 0.00 | 0.00 | 95 | 1009.4 |
| 20260510033641 | 54 | 27 | 0.0 | 0.0 | 0.00 | 0.00 | 0.00 | 95 | 1009.2 |
| 20260510033139 | 54 | 27 | 0.0 | 0.0 | 0.00 | 0.00 | 0.00 | 95 | 1009.3 |
| 20260510032635 | 54 | 27 | 0.0 | 0.0 | 0.00 | 0.00 | 0.00 | 95 | 1009.4 |
| 20260510032130 | 54 | 27 | 0.0 | 0.0 | 0.00 | 0.00 | 0.00 | 95 | 1009.3 |
| 20260510031625 | 54 | 27 | 0.0 | 0.0 | 0.00 | 0.00 | 0.00 | 94 | 1009.3 |
| 20260510031122 | 55 | 27 | 0.0 | 0.0 | 0.00 | 0.00 | 0.00 | 94 | 1009.4 |
| 20260510030617 | 55 | 27 | 0.0 | 0.0 | 0.00 | 0.00 | 0.00 | 94 | 1009.3 |
| 20260510030115 | 55 | 27 | 0.0 | 0.0 | 0.00 | 0.00 | 0.00 | 94 | 1009.1 |
| 20260510025612 | 55 | 27 | 0.0 | 0.0 | 0.00 | 0.00 | 0.00 | 94 | 1009.1 |
| 20260510025109 | 55 | 27 | 0.0 | 0.0 | 0.00 | 0.00 | 0.00 | 94 | 1009.1 |
| 20260510024606 | 55 | 27 | 0.0 | 0.0 | 0.00 | 0.00 | 0.00 | 93 | 1009.1 |
| 20260510024102 | 55 | 27 | 0.0 | 0.0 | 0.00 | 0.00 | 0.00 | 93 | 1009.1 |
| 20260510023558 | 55 | 27 | 0.0 | 1.0 | 0.00 | 0.00 | 0.00 | 93 | 1009.1 |
| 20260510023056 | 55 | 30 | 0.0 | 0.0 | 0.00 | 0.00 | 0.00 | 93 | 1009.2 |
| 20260510022550 | 55 | 29 | 0.0 | 0.0 | 0.00 | 0.00 | 0.00 | 92 | 1009.2 |
| 20260510022049 | 56 | 32 | 0.0 | 0.0 | 0.00 | 0.00 | 0.00 | 92 | 1009.2 |
| 20260510021546 | 56 | 33 | 0.0 | 0.0 | 0.00 | 0.00 | 0.00 | 92 | 1009.1 |
| 20260510021044 | 56 | 30 | 0.0 | 0.0 | 0.00 | 0.00 | 0.00 | 92 | 1008.9 |
| 20260510020544 | 56 | 30 | 0.0 | 0.0 | 0.00 | 0.00 | 0.00 | 91 | 1009.0 |
| 20260510020040 | 56 | 31 | 0.0 | 0.0 | 0.00 | 0.00 | 0.00 | 91 | 1008.9 |
| 20260510015535 | 56 | 30 | 0.0 | 0.0 | 0.00 | 0.00 | 0.00 | 91 | 1009.0 |
| 20260510015032 | 56 | 32 | 0.0 | 0.0 | 0.00 | 0.00 | 0.00 | 90 | 1009.0 |
| 20260510014528 | 57 | 33 | 0.0 | 0.0 | 0.00 | 0.00 | 0.00 | 90 | 1008.9 |
| 20260510014026 | 57 | 34 | 0.0 | 0.0 | 0.00 | 0.00 | 0.00 | 90 | 1008.7 |
| 20260510013520 | 57 | 34 | 0.0 | 0.0 | 0.00 | 0.00 | 0.00 | 89 | 1008.8 |
| 20260510013016 | 57 | 33 | 0.0 | 0.0 | 0.00 | 0.00 | 0.00 | 89 | 1008.7 |
| 20260510012510 | 58 | 31 | 0.0 | 0.0 | 0.00 | 0.00 | 0.00 | 89 | 1008.7 |
| 20260510012006 | 58 | 32 | 0.0 | 0.0 | 0.00 | 0.00 | 0.00 | 88 | 1008.5 |
| 20260510011500 | 58 | 31 | 0.0 | 0.0 | 0.00 | 0.00 | 0.00 | 88 | 1008.4 |
| 20260510010957 | 58 | 31 | 0.0 | 0.0 | 0.00 | 0.00 | 0.00 | 86 | 1008.4 |
| 20260510010454 | 59 | 33 | 0.0 | 0.0 | 0.00 | 0.00 | 0.00 | 86 | 1008.4 |
| 20260510005951 | 59 | 33 | 0.0 | 0.0 | 0.00 | 0.00 | 0.00 | 86 | 1008.3 |
| 20260510005442 | 59 | 32 | 0.0 | 0.0 | 0.00 | 0.00 | 0.00 | 85 | 1008.3 |
| 20260510004939 | 60 | 32 | 0.0 | 0.0 | 0.00 | 0.00 | 0.00 | 84 | 1008.2 |
| 20260510004436 | 60 | 32 | 0.0 | 0.0 | 0.00 | 0.00 | 0.00 | 84 | 1008.1 |
| 20260510003934 | 60 | 32 | 0.0 | 0.0 | 0.00 | 0.00 | 0.00 | 84 | 1008.0 |
| 20260510003430 | 60 | 31 | 0.0 | 0.0 | 0.00 | 0.00 | 0.00 | 82 | 1008.0 |
| 20260510002929 | 61 | 31 | 0.0 | 0.0 | 0.00 | 0.00 | 0.00 | 82 | 1008.1 |
| 20260510002428 | 61 | 30 | 0.0 | 0.0 | 0.00 | 0.00 | 0.00 | 82 | 1008.0 |
| 20260510001924 | 62 | 32 | 0.0 | 0.0 | 0.00 | 0.00 | 0.00 | 81 | 1008.0 |
| 20260510001421 | 62 | 31 | 0.0 | 0.0 | 0.00 | 0.00 | 0.00 | 79 | 1007.8 |
| 20260510000919 | 63 | 31 | 0.0 | 0.0 | 0.00 | 0.00 | 0.00 | 79 | 1008.1 |
| 20260510000415 | 63 | 31 | 0.0 | 0.0 | 0.00 | 0.00 | 0.00 | 79 | 1008.0 |
| 20260509235911 | 64 | 31 | 1.0 | 1.0 | 0.00 | 0.00 | 0.00 | 78 | 1007.9 |
| 20260509235408 | 64 | 29 | 0.0 | 0.0 | 0.00 | 0.00 | 0.00 | 77 | 1007.8 |
| 20260509234903 | 65 | 30 | 0.0 | 0.0 | 0.00 | 0.00 | 0.00 | 74 | 1007.7 |
| 20260509234401 | 65 | 27 | 0.0 | 0.0 | 0.00 | 0.00 | 0.00 | 74 | 1007.8 |
| 20260509233859 | 66 | 26 | 0.0 | 0.0 | 0.00 | 0.00 | 0.00 | 73 | 1007.8 |
| 20260509233356 | 66 | 26 | 0.0 | 0.0 | 0.00 | 0.00 | 0.00 | 72 | 1007.7 |
| 20260509232852 | 67 | 25 | 0.0 | 0.0 | 0.00 | 0.00 | 0.00 | 70 | 1007.4 |
| 20260509232351 | 67 | 31 | 0.0 | 0.0 | 0.00 | 0.00 | 0.00 | 70 | 1007.6 |
| 20260509231846 | 67 | 29 | 0.0 | 0.0 | 0.00 | 0.00 | 0.00 | 70 | 1007.5 |
| 20260509231343 | 68 | 29 | 0.0 | 0.0 | 0.00 | 0.00 | 0.00 | 69 | 1007.5 |
| 20260509230841 | 68 | 18 | 1.0 | 1.0 | 0.00 | 0.00 | 0.00 | 68 | 1007.4 |
| 20260509230338 | 68 | 25 | 0.0 | 0.0 | 0.00 | 0.00 | 0.00 | 67 | 1007.4 |
| 20260509225833 | 68 | 26 | 0.0 | 0.0 | 0.00 | 0.00 | 0.00 | 66 | 1007.4 |
| 20260509225331 | 68 | 27 | 0.0 | 0.0 | 0.00 | 0.00 | 0.00 | 67 | 1007.4 |
| 20260509224827 | 68 | 28 | 0.0 | 0.0 | 0.00 | 0.00 | 0.00 | 65 | 1007.4 |
| 20260509224322 | 68 | 63 | 2.0 | 2.0 | 0.00 | 0.00 | 0.00 | 65 | 1007.4 |
| 20260509223820 | 68 | 42 | 1.0 | 1.0 | 0.00 | 0.00 | 0.00 | 66 | 1007.5 |
| 20260509223316 | 69 | 59 | 1.0 | 2.0 | 0.00 | 0.00 | 0.00 | 65 | 1007.4 |
| 20260509222813 | 69 | 5 | 0.0 | 0.0 | 0.00 | 0.00 | 0.00 | 65 | 1007.5 |
| 20260509222309 | 69 | 46 | 0.0 | 1.0 | 0.00 | 0.00 | 0.00 | 64 | 1007.4 |
| 20260509221804 | 69 | 46 | 1.0 | 1.0 | 0.00 | 0.00 | 0.00 | 64 | 1007.3 |
| 20260509221302 | 69 | 86 | 2.0 | 2.0 | 0.00 | 0.00 | 0.00 | 63 | 1007.5 |
| 20260509220757 | 69 | 119 | 3.0 | 3.0 | 0.00 | 0.00 | 0.00 | 63 | 1007.4 |
| 20260509220254 | 69 | 42 | 1.0 | 1.0 | 0.00 | 0.00 | 0.00 | 62 | 1007.4 |
| 20260509215754 | 70 | 30 | 0.0 | 1.0 | 0.00 | 0.00 | 0.00 | 62 | 1007.3 |
| 20260509215251 | 71 | 184 | 3.0 | 4.0 | 0.00 | 0.00 | 0.00 | 60 | 1007.5 |
| 20260509214748 | 70 | 35 | 0.0 | 0.0 | 0.00 | 0.00 | 0.00 | 61 | 1007.6 |
| 20260509214245 | 70 | 86 | 2.0 | 2.0 | 0.00 | 0.00 | 0.00 | 62 | 1007.5 |
| 20260509213742 | 70 | 66 | 2.0 | 2.0 | 0.00 | 0.00 | 0.00 | 62 | 1007.6 |
| 20260509213237 | 70 | 55 | 1.0 | 2.0 | 0.00 | 0.00 | 0.00 | 62 | 1007.6 |
| 20260509212735 | 70 | 66 | 1.0 | 1.0 | 0.00 | 0.00 | 0.00 | 61 | 1007.4 |
| 20260509212232 | 70 | 56 | 1.0 | 1.0 | 0.00 | 0.00 | 0.00 | 62 | 1007.5 |
| 20260509211728 | 70 | 102 | 4.0 | 4.0 | 0.00 | 0.00 | 0.00 | 61 | 1007.5 |
| 20260509211225 | 71 | 52 | 1.0 | 1.0 | 0.00 | 0.00 | 0.00 | 61 | 1007.4 |
| 20260509210721 | 71 | 44 | 1.0 | 2.0 | 0.00 | 0.00 | 0.00 | 59 | 1007.4 |
| 20260509210219 | 71 | 50 | 1.0 | 2.0 | 0.00 | 0.00 | 0.00 | 59 | 1007.5 |
| 20260509205718 | 71 | 55 | 2.0 | 2.0 | 0.00 | 0.00 | 0.00 | 58 | 1007.4 |
| 20260509205218 | 70 | 38 | 1.0 | 1.0 | 0.00 | 0.00 | 0.00 | 59 | 1007.2 |
| 20260509204714 | 70 | 44 | 2.0 | 2.0 | 0.00 | 0.00 | 0.00 | 58 | 1007.4 |
| 20260509204211 | 70 | 30 | 0.0 | 0.0 | 0.00 | 0.00 | 0.00 | 59 | 1007.1 |
| 20260509203707 | 71 | 68 | 4.0 | 6.0 | 0.00 | 0.00 | 0.00 | 58 | 1007.2 |
| 20260509203206 | 71 | 30 | 1.0 | 1.0 | 0.00 | 0.00 | 0.00 | 56 | 1007.4 |
| 20260509202701 | 71 | 63 | 1.0 | 2.0 | 0.00 | 0.00 | 0.00 | 56 | 1007.2 |
| 20260509202156 | 71 | 35 | 1.0 | 1.0 | 0.00 | 0.00 | 0.00 | 57 | 1007.4 |
| 20260509201651 | 71 | 33 | 1.0 | 1.0 | 0.00 | 0.00 | 0.00 | 56 | 1007.3 |
| 20260509201148 | 72 | 25 | 1.0 | 1.0 | 0.00 | 0.00 | 0.00 | 55 | 1007.3 |
| 20260509200645 | 71 | 29 | 1.0 | 1.0 | 0.00 | 0.00 | 0.00 | 57 | 1007.4 |
| 20260509200140 | 73 | 20 | 1.0 | 1.0 | 0.00 | 0.00 | 0.00 | 56 | 1007.6 |
| 20260509195636 | 73 | 126 | 2.0 | 3.0 | 0.00 | 0.00 | 0.00 | 52 | 1007.6 |
| 20260509195131 | 73 | 68 | 2.0 | 2.0 | 0.00 | 0.00 | 0.00 | 55 | 1007.8 |
| 20260509194630 | 73 | 24 | 2.0 | 2.0 | 0.00 | 0.00 | 0.00 | 51 | 1007.8 |
| 20260509194128 | 73 | 27 | 0.0 | 0.0 | 0.00 | 0.00 | 0.00 | 52 | 1008.1 |
| 20260509193623 | 72 | 3 | 2.0 | 2.0 | 0.00 | 0.00 | 0.00 | 53 | 1008.1 |
| 20260509193119 | 71 | 51 | 2.0 | 2.0 | 0.00 | 0.00 | 0.00 | 55 | 1008.3 |
| 20260509192616 | 71 | 30 | 0.0 | 0.0 | 0.00 | 0.00 | 0.00 | 59 | 1008.1 |
| 20260509192111 | 71 | 187 | 3.0 | 3.0 | 0.00 | 0.00 | 0.00 | 54 | 1008.1 |
| 20260509191606 | 71 | 102 | 2.0 | 3.0 | 0.00 | 0.00 | 0.00 | 56 | 1008.0 |
| 20260509191102 | 71 | 31 | 1.0 | 1.0 | 0.00 | 0.00 | 0.00 | 55 | 1008.1 |
| 20260509190559 | 70 | 0 | 1.0 | 2.0 | 0.00 | 0.00 | 0.00 | 54 | 1008.3 |
| 20260509190057 | 70 | 352 | 1.0 | 2.0 | 0.00 | 0.00 | 0.00 | 56 | 1008.4 |
| 20260509185555 | 71 | 54 | 1.0 | 2.0 | 0.00 | 0.00 | 0.00 | 53 | 1008.5 |
| 20260509185050 | 71 | 4 | 1.0 | 1.0 | 0.00 | 0.00 | 0.00 | 52 | 1008.3 |
| 20260509184549 | 71 | 50 | 1.0 | 1.0 | 0.00 | 0.00 | 0.00 | 51 | 1008.4 |
| 20260509184045 | 71 | 9 | 1.0 | 2.0 | 0.00 | 0.00 | 0.00 | 52 | 1008.6 |
| 20260509183540 | 71 | 356 | 1.0 | 2.0 | 0.00 | 0.00 | 0.00 | 54 | 1008.6 |
| 20260509183036 | 71 | 6 | 1.0 | 1.0 | 0.00 | 0.00 | 0.00 | 56 | 1008.6 |
| 20260509182533 | 69 | 17 | 0.0 | 1.0 | 0.00 | 0.00 | 0.00 | 59 | 1008.8 |
| 20260509182030 | 69 | 26 | 2.0 | 2.0 | 0.00 | 0.00 | 0.00 | 56 | 1008.8 |
| 20260509181528 | 68 | 355 | 1.0 | 2.0 | 0.00 | 0.00 | 0.00 | 58 | 1008.9 |
| 20260509181025 | 69 | 1 | 1.0 | 1.0 | 0.00 | 0.00 | 0.00 | 55 | 1009.2 |
| 20260509180521 | 68 | 25 | 0.0 | 0.0 | 0.00 | 0.00 | 0.00 | 62 | 1009.2 |
| 20260509180019 | 68 | 31 | 0.0 | 0.0 | 0.00 | 0.00 | 0.00 | 58 | 1009.5 |
| 20260509175520 | 68 | 23 | 2.0 | 2.0 | 0.00 | 0.00 | 0.00 | 58 | 1009.4 |
| 20260509175017 | 68 | 30 | 0.0 | 0.0 | 0.00 | 0.00 | 0.00 | 55 | 1009.5 |
| 20260509174513 | 68 | 12 | 0.0 | 0.0 | 0.00 | 0.00 | 0.00 | 58 | 1009.5 |
| 20260509174008 | 68 | 21 | 0.0 | 0.0 | 0.00 | 0.00 | 0.00 | 59 | 1009.5 |
| 20260509173503 | 68 | 355 | 3.0 | 3.0 | 0.00 | 0.00 | 0.00 | 55 | 1009.4 |
| 20260509172959 | 68 | 24 | 2.0 | 3.0 | 0.00 | 0.00 | 0.00 | 58 | 1009.6 |
| 20260509172451 | 67 | 25 | 1.0 | 2.0 | 0.00 | 0.00 | 0.00 | 58 | 1009.5 |
| 20260509171946 | 67 | 9 | 1.0 | 1.0 | 0.00 | 0.00 | 0.00 | 59 | 1009.5 |
| 20260509171442 | 66 | 27 | 1.0 | 1.0 | 0.00 | 0.00 | 0.00 | 62 | 1009.5 |
| 20260509170938 | 65 | 17 | 1.0 | 2.0 | 0.00 | 0.00 | 0.00 | 60 | 1009.6 |
| 20260509170434 | 66 | 358 | 3.0 | 3.0 | 0.00 | 0.00 | 0.00 | 58 | 1009.7 |
| 20260509165931 | 66 | 334 | 4.0 | 4.0 | 0.00 | 0.00 | 0.00 | 61 | 1009.7 |
| 20260509165430 | 66 | 330 | 3.0 | 3.0 | 0.00 | 0.00 | 0.00 | 58 | 1009.6 |
| 20260509164926 | 66 | 24 | 0.0 | 1.0 | 0.00 | 0.00 | 0.00 | 59 | 1009.6 |
| 20260509164422 | 66 | 13 | 2.0 | 2.0 | 0.00 | 0.00 | 0.00 | 58 | 1009.6 |
| 20260509163918 | 66 | 353 | 1.0 | 1.0 | 0.00 | 0.00 | 0.00 | 59 | 1009.7 |
| 20260509163416 | 67 | 26 | 0.0 | 1.0 | 0.00 | 0.00 | 0.00 | 56 | 1009.7 |
| 20260509162914 | 68 | 356 | 1.0 | 2.0 | 0.00 | 0.00 | 0.00 | 56 | 1009.6 |
| 20260509162413 | 68 | 8 | 1.0 | 1.0 | 0.00 | 0.00 | 0.00 | 53 | 1009.8 |
| 20260509161909 | 66 | 16 | 1.0 | 1.0 | 0.00 | 0.00 | 0.00 | 62 | 1009.8 |
| 20260509161406 | 65 | 7 | 1.0 | 2.0 | 0.00 | 0.00 | 0.00 | 60 | 1009.8 |
| 20260509160901 | 65 | 19 | 1.0 | 1.0 | 0.00 | 0.00 | 0.00 | 58 | 1009.9 |
| 20260509160357 | 65 | 36 | 0.0 | 1.0 | 0.00 | 0.00 | 0.00 | 59 | 1010.0 |
| 20260509155852 | 65 | 14 | 1.0 | 2.0 | 0.00 | 0.00 | 0.00 | 58 | 1010.0 |
| 20260509155349 | 65 | 102 | 4.0 | 4.0 | 0.00 | 0.00 | 0.00 | 58 | 1009.9 |
| 20260509154845 | 64 | 22 | 0.0 | 0.0 | 0.00 | 0.00 | 0.00 | 60 | 1010.0 |
| 20260509154342 | 65 | 43 | 1.0 | 2.0 | 0.00 | 0.00 | 0.00 | 57 | 1010.0 |
| 20260509153839 | 66 | 19 | 1.0 | 2.0 | 0.00 | 0.00 | 0.00 | 56 | 1010.0 |
| 20260509153336 | 65 | 21 | 0.0 | 0.0 | 0.00 | 0.00 | 0.00 | 56 | 1009.9 |
| 20260509152833 | 66 | 105 | 4.0 | 6.0 | 0.00 | 0.00 | 0.00 | 55 | 1010.1 |
| 20260509152329 | 66 | 51 | 0.0 | 1.0 | 0.00 | 0.00 | 0.00 | 61 | 1010.0 |
| 20260509151826 | 66 | 358 | 2.0 | 2.0 | 0.00 | 0.00 | 0.00 | 58 | 1010.0 |
| 20260509151322 | 65 | 352 | 1.0 | 2.0 | 0.00 | 0.00 | 0.00 | 60 | 1010.0 |
| 20260509150821 | 65 | 97 | 2.0 | 3.0 | 0.00 | 0.00 | 0.00 | 58 | 1010.1 |
| 20260509150318 | 65 | 61 | 1.0 | 2.0 | 0.00 | 0.00 | 0.00 | 58 | 1010.2 |
| 20260509145815 | 64 | 46 | 0.0 | 0.0 | 0.00 | 0.00 | 0.00 | 64 | 1010.4 |
| 20260509145315 | 64 | 36 | 1.0 | 1.0 | 0.00 | 0.00 | 0.00 | 62 | 1010.5 |
| 20260509144812 | 63 | 32 | 0.0 | 1.0 | 0.00 | 0.00 | 0.00 | 60 | 1010.5 |
| 20260509144309 | 63 | 69 | 1.0 | 1.0 | 0.00 | 0.00 | 0.00 | 62 | 1010.7 |
| 20260509143806 | 63 | 42 | 2.0 | 3.0 | 0.00 | 0.00 | 0.00 | 60 | 1010.5 |
| 20260509143303 | 63 | 35 | 1.0 | 1.0 | 0.00 | 0.00 | 0.00 | 59 | 1010.7 |
| 20260509142759 | 63 | 36 | 0.0 | 1.0 | 0.00 | 0.00 | 0.00 | 62 | 1010.7 |
| 20260509142255 | 64 | 43 | 1.0 | 1.0 | 0.00 | 0.00 | 0.00 | 59 | 1010.6 |
| 20260509141751 | 64 | 36 | 0.0 | 0.0 | 0.00 | 0.00 | 0.00 | 62 | 1010.4 |
| 20260509141248 | 63 | 24 | 0.0 | 0.0 | 0.00 | 0.00 | 0.00 | 60 | 1010.4 |
| 20260509140745 | 63 | 320 | 2.0 | 2.0 | 0.00 | 0.00 | 0.00 | 58 | 1010.4 |
| 20260509140242 | 63 | 58 | 1.0 | 1.0 | 0.00 | 0.00 | 0.00 | 61 | 1010.3 |
| 20260509135740 | 64 | 125 | 4.0 | 6.0 | 0.00 | 0.00 | 0.00 | 57 | 1010.4 |
| 20260509135237 | 64 | 323 | 1.0 | 2.0 | 0.00 | 0.00 | 0.00 | 58 | 1010.6 |
| 20260509134734 | 63 | 35 | 0.0 | 0.0 | 0.00 | 0.00 | 0.00 | 57 | 1010.5 |
| 20260509134232 | 63 | 256 | 2.0 | 3.0 | 0.00 | 0.00 | 0.00 | 62 | 1010.6 |
| 20260509133729 | 63 | 29 | 1.0 | 2.0 | 0.00 | 0.00 | 0.00 | 58 | 1010.4 |
| 20260509133225 | 63 | 84 | 4.0 | 6.0 | 0.00 | 0.00 | 0.00 | 58 | 1010.4 |
| 20260509132724 | 62 | 25 | 1.0 | 1.0 | 0.00 | 0.00 | 0.00 | 60 | 1010.4 |
| 20260509132222 | 62 | 63 | 2.0 | 3.0 | 0.00 | 0.00 | 0.00 | 57 | 1010.6 |
| 20260509131718 | 62 | 23 | 0.0 | 1.0 | 0.00 | 0.00 | 0.00 | 57 | 1010.4 |
| 20260509131215 | 62 | 358 | 2.0 | 2.0 | 0.00 | 0.00 | 0.00 | 59 | 1010.4 |
| 20260509130711 | 62 | 17 | 1.0 | 1.0 | 0.00 | 0.00 | 0.00 | 57 | 1010.2 |
| 20260509130207 | 62 | 107 | 1.0 | 3.0 | 0.00 | 0.00 | 0.00 | 56 | 1010.3 |
| 20260509125703 | 62 | 58 | 2.0 | 3.0 | 0.00 | 0.00 | 0.00 | 59 | 1010.2 |
| 20260509125200 | 62 | 28 | 3.0 | 4.0 | 0.00 | 0.00 | 0.00 | 58 | 1010.1 |
| 20260509124657 | 62 | 8 | 2.0 | 3.0 | 0.00 | 0.00 | 0.00 | 59 | 1010.3 |
| 20260509124154 | 61 | 24 | 1.0 | 1.0 | 0.00 | 0.00 | 0.00 | 60 | 1010.4 |
| 20260509123652 | 61 | 26 | 0.0 | 1.0 | 0.00 | 0.00 | 0.00 | 64 | 1010.5 |
| 20260509123149 | 60 | 40 | 1.0 | 1.0 | 0.00 | 0.00 | 0.00 | 67 | 1010.3 |
| 20260509122644 | 60 | 26 | 0.0 | 0.0 | 0.00 | 0.00 | 0.00 | 64 | 1010.4 |
| 20260509122141 | 59 | 26 | 0.0 | 0.0 | 0.00 | 0.00 | 0.00 | 69 | 1010.3 |
| 20260509121638 | 59 | 45 | 1.0 | 1.0 | 0.00 | 0.00 | 0.00 | 66 | 1010.4 |
| 20260509121136 | 58 | 69 | 1.0 | 2.0 | 0.00 | 0.00 | 0.00 | 65 | 1010.2 |
| 20260509120634 | 58 | 33 | 0.0 | 0.0 | 0.00 | 0.00 | 0.00 | 76 | 1010.1 |
| 20260509120132 | 58 | 4 | 1.0 | 1.0 | 0.00 | 0.00 | 0.00 | 76 | 1010.4 |
| 20260509115629 | 57 | 25 | 0.0 | 0.0 | 0.00 | 0.00 | 0.00 | 74 | 1010.4 |
| 20260509115126 | 57 | 32 | 0.0 | 1.0 | 0.00 | 0.00 | 0.00 | 69 | 1010.3 |
| 20260509114624 | 56 | 37 | 0.0 | 1.0 | 0.00 | 0.00 | 0.00 | 78 | 1010.3 |
| 20260509114123 | 56 | 25 | 0.0 | 0.0 | 0.00 | 0.00 | 0.00 | 79 | 1010.3 |
| 20260509113621 | 55 | 24 | 0.0 | 0.0 | 0.00 | 0.00 | 0.00 | 77 | 1010.0 |
| 20260509113118 | 55 | 28 | 0.0 | 0.0 | 0.00 | 0.00 | 0.00 | 79 | 1010.0 |
| 20260509112614 | 55 | 28 | 0.0 | 0.0 | 0.00 | 0.00 | 0.00 | 79 | 1010.2 |
| 20260509112112 | 54 | 38 | 1.0 | 1.0 | 0.00 | 0.00 | 0.00 | 79 | 1010.1 |
| 20260509111608 | 54 | 28 | 0.0 | 0.0 | 0.00 | 0.00 | 0.00 | 78 | 1010.0 |
| 20260509111105 | 55 | 30 | 0.0 | 1.0 | 0.00 | 0.00 | 0.00 | 79 | 1010.0 |
| 20260509110602 | 54 | 40 | 0.0 | 0.0 | 0.00 | 0.00 | 0.00 | 74 | 1010.1 |
| 20260509110059 | 54 | 26 | 0.0 | 0.0 | 0.00 | 0.00 | 0.00 | 77 | 1010.0 |
| 20260509105558 | 54 | 31 | 0.0 | 0.0 | 0.00 | 0.00 | 0.00 | 78 | 1009.9 |
| 20260509105055 | 54 | 30 | 0.0 | 0.0 | 0.00 | 0.00 | 0.00 | 77 | 1009.8 |
| 20260509104552 | 54 | 30 | 0.0 | 0.0 | 0.00 | 0.00 | 0.00 | 77 | 1009.9 |
| 20260509104049 | 54 | 37 | 0.0 | 0.0 | 0.00 | 0.00 | 0.00 | 76 | 1009.7 |
| 20260509103547 | 54 | 31 | 0.0 | 0.0 | 0.00 | 0.00 | 0.00 | 76 | 1009.7 |
| 20260509103045 | 54 | 36 | 0.0 | 0.0 | 0.00 | 0.00 | 0.00 | 75 | 1009.6 |
| 20260509102542 | 54 | 33 | 0.0 | 0.0 | 0.00 | 0.00 | 0.00 | 75 | 1009.7 |
| 20260509102038 | 55 | 30 | 0.0 | 0.0 | 0.00 | 0.00 | 0.00 | 74 | 1009.7 |
| 20260509101534 | 55 | 35 | 0.0 | 0.0 | 0.00 | 0.00 | 0.00 | 73 | 1009.6 |
| 20260509101032 | 55 | 33 | 0.0 | 1.0 | 0.00 | 0.00 | 0.00 | 72 | 1009.7 |
| 20260509100529 | 55 | 29 | 1.0 | 1.0 | 0.00 | 0.00 | 0.00 | 72 | 1009.5 |
| 20260509100026 | 56 | 28 | 1.0 | 1.0 | 0.00 | 0.00 | 0.00 | 72 | 1009.5 |
| 20260509095522 | 56 | 29 | 0.0 | 0.0 | 0.00 | 0.00 | 0.00 | 71 | 1009.5 |
| 20260509095020 | 57 | 31 | 0.0 | 1.0 | 0.00 | 0.00 | 0.00 | 68 | 1009.5 |